Location: Malcolm X Square
(37.7810°N, 122.4297°W)
Time: 01:58:39
(UTC+00:00)

KORONAS-FOTON - Visible Passes

Search period start: 19 July 2024 00:00
Search period end: 29 July 2024 00:00
Orbit: 473 x 497 km, 82.4° (Epoch: 18 July)

Date Brightness Start Highest point End Pass type
(mag) Time Alt. Az. Time Alt. Az. Time Alt. Az.
19 Jul 3.5 11:18:28 10° NNW 11:22:03 73° W 11:23:32 33° S visible
20 Jul 3.9 10:53:57 10° N 10:57:32 63° E 10:58:32 42° SE visible
21 Jul 4.9 10:29:36 10° N 10:32:57 36° E 10:33:34 33° ESE visible
21 Jul 5.8 12:06:58 10° WNW 12:07:37 10° W 12:07:54 10° W visible
22 Jul 5.7 10:05:27 10° NNE 10:08:19 22° ENE 10:08:38 22° E visible
22 Jul 5.4 11:40:48 10° NW 11:42:58 17° W 11:42:58 17° W visible
23 Jul 6.4 09:41:40 10° NE 09:43:36 14° ENE 09:43:43 14° ENE visible
23 Jul 4.9 11:15:37 10° NNW 11:18:03 26° WNW 11:18:03 26° WNW visible
24 Jul 4.7 10:50:43 10° NNW 10:53:10 35° NW 10:53:10 35° NW visible
25 Jul 4.9 10:26:00 10° N 10:28:17 37° N 10:28:17 37° N visible
26 Jul 5.5 10:01:24 10° N 10:03:25 29° NNE 10:03:25 29° NNE visible
27 Jul 6.2 09:36:59 10° NNE 09:38:34 21° NNE 09:38:34 21° NNE visible
28 Jul 6.6 09:12:47 10° NNE 09:13:43 14° NE 09:13:43 14° NE visible
28 Jul 6.3 10:47:43 10° NW 10:48:04 12° NW 10:48:04 12° NW visible
